Location: Holyhead Bay
(53.3667°N, 4.6667°W)
Time: 18:48:27
(UTC+00:00)

Cosmos 1943 Rocket - Pass Details

Date: 24 November 2020
Orbit: 811 x 844 km, 71.0° (Epoch: 16 January)

Event Time Altitude Azimuth Distance (km) Brightness Sun altitude
Rises 18:20:36 0° 328° (NNW) 3,353 5.6 -18.7°
Reaches altitude 10° 18:23:03 10° 331° (NNW) 2,421 4.8 -19.1°
Maximum altitude 18:28:34 67° 54° (NE) 892 2.1 -19.9°
Enters shadow 18:31:49 25° 131° (SE) 1,596 3.3 -20.4°
